Location: Clyde
(45.1830°S, 169.3170°E)
Time: 16:19:28
(UTC+12:00)

ADEOS Rocket - Pass Details

Date: 24 January 2019
Orbit: 859 x 1307 km, 98.7° (Epoch: 19 April)

Event Time Altitude Azimuth Distance (km) Brightness Sun altitude
Exits shadow 23:05:53 10° 355° (N) 2,586 4.8 -15.0°
Reaches altitude 10° 23:05:57 10° 355° (N) 2,556 4.8 -15.0°
Maximum altitude 23:11:23 50° 280° (W) 1,104 3.5 -15.7°
Drops below altitude 10° 23:16:47 10° 204° (SSW) 2,535 6.4 -16.3°
Sets 23:19:16 0° 198° (SSW) 3,495 7.3 -16.5°
